Regional Weather Roundup
Issued by NWS Bismarck, ND

Home | Current Version | Previous Version | Text Only | Print | Product List | Glossary On
Versions: 1 2 3 4 5 6 7 8 9 10 11 12 13 14 15 16 17 18 19 20 21 22 23 24 25 26 27 28 29 30 31 32 33 34 35 36 37 38 39 40 41 42 43 44 45 46 47 48 49 50
564
ASUS43 KBIS 110102
RWRBIS

NWR BROADCAST TEXT
NATIONAL WEATHER SERVICE BISMARCK ND
700 PM CST SAT DEC 10 2016

NOTE: "FAIR" INDICATES FEW OR NO CLOUDS BELOW 12,000 FEET WITH NO
SIGNIFICANT WEATHER AND/OR OBSTRUCTIONS TO VISIBILITY.


CITY           SKY/WX    TMP DP  RH WIND       PRES   REMARKS
WILLISTON      LGT SNOW   3  -5  69 SE15G21   29.96S WCI -16
MINOT          CLOUDY    -5 -10  79 E12       30.08S WCI -23
MINOT AFB      CLOUDY    -7 -12  79 E13       30.08F WCI -27
BISMARCK       CLOUDY    -2  -6  83 E13       30.05S WCI -20
DICKINSON      FLURRIES  -4  -9  79 E18       29.84F WCI -26
GARRISON         N/A     -2  -8  76 E15       30.01F WCI -22
HETTINGER ARPT CLOUDY    -2  -6  83 E14       29.86F WCI -21
JAMESTOWN      CLOUDY    -1  -6  79 E16       30.10F WCI -21
CARRINGTON     CLOUDY    -2  -6  84 E14       30.13S WCI -21
HAZEN          CLOUDY     0  -9  65 E9        30.04F WCI -16
STANLEY        FLURRIES  -4  -8  84 E15       29.98F WCI -25
TIOGA          CLOUDY    -2  -4  92 SE22      29.95F WCI -26
WATFORD CITY   LGT SNOW   0  -6  78 SE13      29.94S WCI -18
$$

CITY           SKY/WX    TMP DP  RH WIND       PRES   REMARKS
GRAND FORKS    CLOUDY    -3  -9  75 NE6       30.27F WCI -15
GRAND FORKS AF CLOUDY    -4 -10  78 E3        30.27R
DEVILS LAKE    CLOUDY    -5  -9  83 E14       30.16F WCI -25
FARGO          CLOUDY     2  -5  72 NE9       30.22F WCI -13
GRAFTON        FAIR      -8 -11  84 NE5       30.31S WCI -19
GWINNER        CLOUDY     3   0  85 E16       30.14F WCI -16
LANGDON        FAIR     -11 -15  84 E9        30.16F WCI -29
$$

CITY           SKY/WX    TMP DP  RH WIND       PRES   REMARKS
ABERDEEN       LGT SNOW   6  -1  73 E13       30.07F WCI -10
MOBRIDGE       LGT SNOW   5  -3  69 E14       29.95F WCI -12
BUFFALO          N/A      2  -3  80 SE13      29.71S WCI -15
RAPID CITY     CLOUDY     5   1  83 E8        29.74R WCI  -8
GLASGOW        LGT SNOW   2  -3  80 E14       29.86F VSB 3/4 WCI -16
SIDNEY         LGT SNOW   1  -3  83 E14       29.91F FOG     WCI -17
WOLF POINT     LGT SNOW   5   0  79 E10       29.89F VSB 3/4 WCI -10
GLENDIVE       LGT SNOW   4   0  83 SE9       29.82F FOG     WCI -10
MILES CITY     CLOUDY    11   6  81 SE6       29.76F WCI   1
BAKER          LGT SNOW   2  -4  76 SE20      29.75F WCI -19
$$

CITY           SKY/WX    TMP DP  RH WIND       PRES   REMARKS
BILLINGS       CLOUDY    20  16  84 SW21      29.70R WCI   4
GREAT FALLS    CLOUDY    -1  -4  87 SE5       29.75R WCI -11
$$





USA.gov is the U.S. government's official web portal to all federal, state and local government web resources and services.